{"data":{"norad_id":60931,"epoch":"2026-05-24T21:31:32.386368Z","epoch_age_seconds":87417,"freshness":"FRESH","line1":"1 60931U 24155H   26144.89690262  .00003653  00000+0  34987-4 0  9996","line2":"2 60931  53.1567 325.4245 0000814  85.0778 275.0333 15.69715629100376","mean_motion":15.69715629,"eccentricity":8.14e-5,"inclination_deg":53.1567,"raan_deg":325.4245,"arg_perigee_deg":85.0778,"mean_anomaly_deg":275.0333,"bstar":3.4987e-5,"rev_number":10037,"period_min":91.736361248907,"perigee_km":359.16218162649,"apogee_km":360.25910322268,"semimajor_km":6737.8476424246,"source":"CELESTRAK","updated_at":"2026-05-25T13:38:19.318485Z"}}